User: anonymous   Login
Location: Montr�al
(45.5000°N, 73.5830°W)
Time: 20:01:37
(UTC-04:00)
Language:

Cosmos 2369 - Orbit

View from above orbital plane
View from above orbital plane
View from above satellite
View from above satellite

Ground track
Ground track

The orbit data is extracted from the following two-line orbital elements,

1 26069U 00006A   16180.13330987 -.00000340  00000-0 -15585-3 0  9995
2 26069  70.9943  20.7581 0009524  34.2064 325.9669 14.13336321846093
Epoch (UTC): 28 June 2016 03:11:57
Eccentricity: 0.0009524
inclination: 70.9943°
perigee height: 841 km
apogee height: 855 km
right ascension of ascending node: 20.7581°
argument of perigee: 34.2064°
revolutions per day: 14.13336321
mean anomaly at epoch: 325.9669°
orbit number at epoch: 84609

The dashed part of the orbit path shows where the satellite is in the earth's shadow,  

DLR